Regional Weather Roundup
Issued by NWS

Home | Current Version | Previous Version | Graphics & Text | Print | Product List | Glossary On
Versions: 1 2 3 4 5 6 7 8 9 10 11 12 13 14 15 16 17 18 19 20 21 22 23 24 25 26 27
000
ASUS45 KTFX 050010
RWRMT
MONTANA REGIONAL WEATHER ROUNDUP
NATIONAL WEATHER SERVICE GREAT FALLS MT
600 PM MDT WED MAY 04 2016

NOTE: "FAIR" INDICATES FEW OR NO CLOUDS BELOW 12000 FEET WITH NO
SIGNIFICANT WEATHER AND/OR OBSTRUCTIONS TO VISIBILITY.

MTZ001>007-043-050100-
WEST OF THE DIVIDE

CITY           SKY/WX    TMP DP  RH WIND       PRES   REMARKS
KALISPELL      PTSUNNY   73  42  32 S7        29.87F
MISSOULA       MOSUNNY   80  37  21 VRB5      29.90F
BUTTE          SUNNY     71  19  14 SW9       30.01F
MULLAN PASS    PTSUNNY   61  30  31 SW7       30.02F
ANACONDA         N/A     73  23  15 S13       29.98F
DEER LODGE       N/A     72  32  23 N3        29.97F
EUREKA           N/A     79  37  22 S7        29.85F
HAMILTON         N/A     79  34  19 W5        29.89F
LIBBY            N/A     79  37  22 CALM      29.85F
PLAINS           N/A     80  44  27 CALM      29.87F
$$

MTZ008-052>055-050100-
SOUTHWEST MONTANA

CITY           SKY/WX    TMP DP  RH WIND       PRES   REMARKS
BOZEMAN        CLOUDY    78  28  16 W14       29.96F
DILLON         CLOUDY    73  30  20 SW12      29.98F
ENNIS          MOSUNNY   73  23  15 S17       30.07F
TWIN BRIDGES     N/A     75  30  19 S9        29.98F
$$

MTZ009-010-012-014-046-048-049-054-050100-
EAST SLOPES AND CENTRAL MONTANA

CITY           SKY/WX    TMP DP  RH WIND       PRES   REMARKS
CUT BANK         N/A     75  32  20 W15G26    29.88F
GREAT FALLS    SUNNY     79  32  18 NW12      29.88F
MALMSTROM AFB  SUNNY     79  29  16 W9        29.88F
HELENA         PTSUNNY   80  28  15 SW8       29.91R
CHOTEAU          N/A     77  32  19 SW12G17   29.90S
CONRAD           N/A     75  44  33 NW14      29.92R
$$

MTZ011-013-016-021-045-047-050-051-050100-
NORTH CENTRAL MONTANA

CITY           SKY/WX    TMP DP  RH WIND       PRES   REMARKS
HAVRE          MOSUNNY   83  39  21 SW9       29.82F
LEWISTOWN      CLOUDY    79  31  17 SW7       29.92F
N BAR RANCH      N/A     77  28  16 SW10      29.97S
$$

MTZ017>020-022>027-061-062-050100-
NORTHEAST MONTANA

CITY           SKY/WX    TMP DP  RH WIND       PRES   REMARKS
GLASGOW        SUNNY     84  37  18 S7        29.83F
JORDAN           N/A     83  36  18 W10       29.86F
SIDNEY         SUNNY     82  37  20 S8        29.88F
WOLF POINT     SUNNY     85  40  20 W7        29.85F
POPLAR           N/A     84  37  18 SW6       29.86S
SCOBEY           N/A     84  39  20 SW15      29.87F
$$

MTZ028>42-056>058-050100-
SOUTHCENTRAL AND SOUTHEAST MONTANA

CITY           SKY/WX    TMP DP  RH WIND       PRES   REMARKS
BAKER          SUNNY     79  36  21 SW12      29.96F
BILLINGS       CLOUDY    82  28  14 S9        29.93F
LIVINGSTON     SUNNY     77  26  15 SW18G25   29.96S
MILES CITY     SUNNY     84  29  13 SW9       29.89F
EKALAKA          N/A     76  39  26 SE7       29.97F
FORSYTH          N/A     84  30  14 SW7       29.89F
LAUREL           N/A     82  42  24 SW2       29.92F
ROUNDUP          N/A     82  30  15 S7        29.84S
$$

REGIONAL REPORTS...DAKOTAS

CITY           SKY/WX    TMP DP  RH WIND       PRES   REMARKS
WILLISTON      SUNNY     84  36  18 SW13G22   29.88F
MINOT          SUNNY     86  35  16 SW10      29.88F
DICKINSON      MOSUNNY   78  37  22 S14       29.94F
BEACH            N/A     79  32  18 SW12      29.97F
CROSBY           N/A     82  32  16 SW20      29.88F
TIOGA            N/A     81  34  18 SW17      29.94F
WATFORD CITY     N/A     81  36  19 SW9G21    29.90F
BISMARCK       SUNNY     78  46  32 S9        29.95F
GRAND FORKS    MOSUNNY   70  29  21 E5        29.95F
FARGO          SUNNY     70  24  17 N5        29.97F
BUFFALO SD       N/A     77  39  25 S16       29.93F
RAPID CITY     SUNNY     73  41  31 S15       30.03F
$$

REGIONAL REPORTS...WYOMING/IDAHO/WASHINGTON

CITY           SKY/WX    TMP DP  RH WIND       PRES   REMARKS
GILLETTE       SUNNY     74  41  30 SW6       30.01F
SHERIDAN       CLOUDY    79  39  23 E7        29.97F
BUFFALO WY     CLOUDY    75  35  23 E13       30.03F
CODY           CLOUDY    79  25  13 SW9       30.00S
YELLOWSTONE LA   N/A     57  23  26 CALM      30.22F
IDAHO FALLS    CLOUDY    74  30  19 SW13      30.02F
SALMON         CLOUDY    79  32  18 SW6       29.89F
BOISE          CLOUDY    82  34  17 SE9       29.82F
SPOKANE        CLOUDY    74  43  32 W9        29.88F
$$

REGIONAL REPORTS...ALBERTA

CITY           SKY/WX    TMP DP  RH WIND       PRES   REMARKS
EDMONTON       MOSUNNY   79  37  22 W13       29.69F
CALGARY        CLOUDY    77  30  18 SW10      29.78F
LETHBRIDGE     PTSUNNY   81  30  16 W18G26    29.81F
MEDICINE HAT   PTSUNNY   82  39  21 S10G17    29.75F
WATERTON GATE    N/A     72  34  25 SW17G25     N/A
CARDSTON         N/A     77  34  20 W8          N/A
MILK RIVER       N/A     77  34  20 W18         N/A
ONEFOUR          N/A     81  36  19 SW8         N/A
$$

REGIONAL REPORTS...SASKATCHEWAN

CITY           SKY/WX    TMP DP  RH WIND       PRES   REMARKS
SWIFT CURRENT  SUNNY     84  28  13 W9        29.81F
REGINA         MOSUNNY   86  37  17 SW9G20    29.77F
SASKATOON      SUNNY     86  27  11 W20G28    29.71F
CYPRESS HILLS    N/A     75  34  22 S10         N/A
VAL MARIE        N/A     82  34  17 S6          N/A
ROCKGLEN         N/A     81  37  21 W8          N/A
$$




USA.gov is the U.S. government's official web portal to all federal, state and local government web resources and services.